MMS 4 (40485 NORAD) Tracking and Keplerian Element Data

This shows tracking and keplerian element data for the satellite.

Feedback or suggestion? Click here.




ElementValue
Catalog40485
NameMMS 4
Epoch Orbit138
Epoch Day34.83335648
Epoch Year2025
RAAN359.0084
Inclination60.2931
Eccentricity0.8860326
Argument of Perigee156.4279
Mean Anonmoly88.7784
Mean Motion0.28498806
Decay Rate-1.948E-05
L11 40485U 15011D 25034.83335648 -.00001948 00000+0 00000+0 0 9994
L22 40485 60.2931 359.0084 8860326 156.4279 88.7784 0.28498806 1389



Live tracking and technical data element details for MMS 4 (NORAD 40485). MMS 4 can be tracked NOW for your location showing map with azimuth and elevation plus other details from your city location.







IsCatalogInMostPopularTable: catalog: 40485, numindb: 566
Update: records affected: 1



GetName: 40485 MMS 4

Hit Count: updated at: Thu, 15 May 2025 09:59:31 GMT